This demonstration page uses our WeatherBlox Daily Observations layout. Learn more.

40.92945, -100.16068

Hourly Observations for April 8, 2017

Temp ( °F °C ) Dew Point ( °F °C ) Humidity (%) Winds ( mph kmh ) Pressure ( in mb ) Visibility ( mi km ) Precip ( " mm )
12:15 am 00:15 Clear 56 13.3 45 7 66 66 S 14 22 29.68 1005 10 16.0934 0 0
12:35 am 00:35 Clear 55 13 44 6.9 67 67 S 15 24 29.68 1005 10 16.0934 0 0
12:55 am 00:55 Clear 56 13.1 45 7 67 67 S 17 28 29.68 1005 10 16.0934 0 0
1:15 am 01:15 Clear 56 13.4 45 7 65 65 S 13 20 29.68 1005 10 16.0934 0 0
1:35 am 01:35 Clear 55 12.9 45 7 68 68 SSE 12 19 29.68 1005 10 16.0934 0 0
1:55 am 01:55 Clear 54 12.2 44 6.7 69 69 ESE 7 11 29.68 1005 10 16.0934 0 0
2:15 am 02:15 Clear 51 10.6 44 6.5 76 76 E 7 11 29.68 1005 10 16.0934 0 0
2:35 am 02:35 Clear 54 12 44 6.9 71 71 SSE 12 19 29.68 1005 10 16.0934 0 0
2:55 am 02:55 Clear 54 12.4 44 6.8 69 69 S 9 15 29.65 1004 10 16.0934 0 0
3:15 am 03:15 Clear 49 9.4 43 6 80 80 ESE 5 7 29.68 1005 10 16.0934 0 0
3:35 am 03:35 Clear 51 10.8 44 6.5 75 75 Calm 29.65 1004 10 16.0934 0 0
3:55 am 03:55 Clear 47 8.5 41 5.2 80 80 ENE 5 7 29.68 1005 10 16.0934 0 0
4:15 am 04:15 Clear 50 10 44 6.4 79 79 NW 7 11 29.65 1004 10 16.0934 0 0
4:35 am 04:35 Clear 44 6.6 41 4.8 88 88 SE 6 9 29.71 1006 10 16.0934 0 0
4:55 am 04:55 Clear 45 7 41 5 87 87 SE 3 6 29.68 1005 10 16.0934 0 0
5:15 am 05:15 Clear 43 6.3 40 4.7 90 90 ESE 5 7 29.71 1006 10 16.0934 0 0
5:35 am 05:35 Clear 43 6 39 3.8 86 86 Calm 29.71 1006 10 16.0934 0 0
5:55 am 05:55 Clear 42 5.3 38 3.3 87 87 Calm 29.71 1006 10 16.0934 0 0
6:15 am 06:15 Clear 40 4.6 38 3.1 90 90 Calm 29.71 1006 10 16.0934 0 0
6:35 am 06:35 Clear 40 4.2 37 2.8 91 91 N 5 7 29.71 1006 10 16.0934 0 0
6:55 am 06:55 Clear 40 4.6 38 3.4 92 92 Calm 29.71 1006 10 16.0934 0 0
7:15 am 07:15 Sunny 40 4.4 38 3.1 91 91 Calm 29.71 1006 10 16.0934 0 0
7:35 am 07:35 Sunny 40 4.7 37 2.8 88 88 Calm 29.71 1006 10 16.0934 0 0
7:55 am 07:55 Sunny 41 5.1 38 3.6 90 90 Calm 29.71 1006 10 16.0934 0 0
8:15 am 08:15 Sunny 43 6.3 41 4.9 91 91 Calm 29.71 1006 10 16.0934 0 0
8:35 am 08:35 Sunny 46 7.9 43 6.3 90 90 Calm 29.68 1005 10 16.0934 0 0
8:55 am 08:55 Sunny 49 9.2 44 6.9 86 86 Calm 29.65 1004 10 16.0934 0 0
9:15 am 09:15 Sunny 51 10.5 46 7.6 82 82 W 6 9 29.65 1004 10 16.0934 0 0
9:35 am 09:35 Sunny 53 11.4 46 7.6 78 78 Calm 29.62 1003 10 16.0934 0 0
9:55 am 09:55 Sunny 54 12.2 46 7.9 75 75 Calm 29.62 1003 10 16.0934 0 0
10:15 am 10:15 Sunny 55 13 47 8.3 73 73 NW 6 9 29.59 1002 10 16.0934 0 0
10:35 am 10:35 Sunny 56 13.6 47 8.6 72 72 NW 5 7 29.59 1002 10 16.0934 0 0
10:55 am 10:55 Sunny 58 14.5 47 8.3 67 67 W 3 6 29.59 1002 10 16.0934 0 0
11:15 am 11:15 Sunny 60 15.8 48 8.9 64 64 Calm 29.59 1002 10 16.0934 0 0
11:35 am 11:35 Sunny 63 17.3 48 9.1 59 59 Calm 29.59 1002 10 16.0934 0 0
11:55 am 11:55 Sunny 66 19.1 49 9.4 54 54 Calm 29.56 1001 10 16.0934 0 0
12:15 pm 12:15 Sunny 68 20.1 49 9.5 51 51 SSE 3 6 29.53 1000 10 16.0934 0 0
12:35 pm 12:35 Sunny 71 21.7 49 9.4 46 46 Calm 29.53 1000 10 16.0934 0 0
12:55 pm 12:55 Sunny 72 22.4 48 8.7 42 42 Calm 29.53 1000 10 16.0934 0 0
1:15 pm 13:15 Sunny 73 22.8 46 8 39 39 Calm 29.53 1000 10 16.0934 0 0
1:35 pm 13:35 Sunny 74 23.5 48 9.1 40 40 Calm 29.5 999 10 16.0934 0 0
1:55 pm 13:55 Sunny 76 24.7 47 8.6 36 36 Calm 29.5 999 10 16.0934 0 0
2:15 pm 14:15 Sunny 78 25.4 47 8.5 34 34 Calm 29.47 998 10 16.0934 0 0
2:35 pm 14:35 Sunny 79 25.9 48 8.8 34 34 Calm 29.47 998 10 16.0934 0 0
2:55 pm 14:55 Sunny 80 26.9 44 6.5 27 27 E 8 13 29.44 997 10 16.0934 0 0
3:15 pm 15:15 Sunny 80 26.6 43 6.2 27 27 E 8 13 29.41 996 10 16.0934 0 0
3:35 pm 15:35 Sunny 81 27 46 7.7 29 29 ESE 6 9 29.44 997 10 16.0934 0 0
3:55 pm 15:55 Sunny 80 26.7 45 7.1 29 29 SSE 12 19 29.41 996 10 16.0934 0 0
4:15 pm 16:15 Sunny 81 27 44 6.4 27 27 SE 5 7 29.41 996 10 16.0934 0 0
4:35 pm 16:35 Sunny 79 25.9 44 6.7 29 29 SSE 7 11 29.44 997 10 16.0934 0 0
4:55 pm 16:55 Sunny 78 25.7 44 6.5 29 29 SE 9 15 29.44 997 10 16.0934 0 0
5:15 pm 17:15 Sunny 78 25.3 41 5.2 27 27 SE 9 15 29.44 997 10 16.0934 0 0
5:35 pm 17:35 Sunny 76 24.5 45 7 33 33 SE 8 13 29.44 997 10 16.0934 0 0
5:55 pm 17:55 Sunny 75 23.8 45 7.3 35 35 ESE 7 11 29.41 996 10 16.0934 0 0
6:15 pm 18:15 Sunny 74 23.5 46 7.6 36 36 SE 8 13 29.41 996 10 16.0934 0 0
6:35 pm 18:35 Sunny 74 23.2 45 7.3 36 36 ESE 9 15 29.41 996 10 16.0934 0 0
6:55 pm 18:55 Sunny 73 22.5 46 7.6 38 38 ESE 8 13 29.41 996 10 16.0934 0 0
7:15 pm 19:15 Sunny 71 21.6 46 7.9 41 41 SE 6 9 29.44 997 10 16.0934 0 0
7:35 pm 19:35 Sunny 70 20.9 47 8.2 44 44 SE 8 13 29.47 998 10 16.0934 0 0
7:55 pm 19:55 Sunny 67 19.2 49 9.4 53 53 SSE 7 11 29.47 998 10 16.0934 0 0
8:15 pm 20:15 Clear 64 18 48 9.1 56 56 SSE 6 9 29.5 999 10 16.0934 0 0
8:35 pm 20:35 Clear 64 17.5 48 9 58 58 SE 6 9 29.5 999 10 16.0934 0 0
8:55 pm 20:55 Clear 63 17.2 48 8.9 58 58 SE 6 9 29.5 999 10 16.0934 0 0
9:15 pm 21:15 Clear 62 16.9 48 8.7 59 59 SE 5 7 29.5 999 10 16.0934 0 0
9:35 pm 21:35 Clear 60 15.7 47 8.6 63 63 SE 6 9 29.5 999 10 16.0934 0 0
9:55 pm 21:55 Clear 54 12.3 46 7.8 74 74 E 5 7 29.53 1000 10 16.0934 0 0
10:15 pm 22:15 Clear 54 12.4 46 7.8 74 74 ESE 3 6 29.53 1000 10 16.0934 0 0
10:35 pm 22:35 Clear 54 12.3 47 8.2 76 76 ESE 5 7 29.5 999 10 16.0934 0 0
10:55 pm 22:55 Clear 55 12.7 47 8.1 74 74 ESE 3 6 29.5 999 10 16.0934 0 0
11:15 pm 23:15 Clear 53 11.5 46 7.8 78 78 E 6 9 29.53 1000 10 16.0934 0 0
11:35 pm 23:35 Clear 52 11.2 46 8 81 81 E 6 9 29.53 1000 10 16.0934 0 0
11:55 pm 23:55 Clear 53 11.6 46 7.9 78 78 E 3 6 29.53 1000 10 16.0934 0 0

Powered by AerisWeather